K2NV Weather Reports


Display with metric or nautical units.
time (UTC)temp
F
wind
direction
speed
MPH
gust
MPH
rain 1hr
in
rain 24hr
in
rain mn
in
humidity
%
barometer
mb
20260505024919 59 210 7.0 13.0 0.00 0.00 0.00 72 1000.9
20260505024418 59 204 8.0 9.0 0.00 0.00 0.00 72 1001.0
20260505023917 59 211 8.0 13.0 0.00 0.00 0.00 73 1001.0
20260505023418 59 208 9.0 12.0 0.00 0.00 0.00 73 1001.0
20260505022917 59 197 8.0 10.0 0.00 0.00 0.00 74 1001.1
20260505022416 58 204 7.0 9.0 0.00 0.00 0.00 74 1001.2
20260505021917 58 221 6.0 7.0 0.00 0.00 0.00 73 1001.2
20260505021418 58 209 5.0 12.0 0.00 0.00 0.00 71 1001.1
20260505020917 59 207 7.0 9.0 0.00 0.00 0.00 70 1001.2
20260505020417 59 185 8.0 10.0 0.00 0.00 0.00 68 1001.1
20260505015917 59 184 8.0 14.0 0.00 0.00 0.00 64 1001.1
20260505015416 60 193 8.0 10.0 0.00 0.00 0.00 62 1001.5
20260505014918 60 216 7.0 12.0 0.00 0.00 0.00 60 1001.3
20260505014417 61 185 7.0 12.0 0.00 0.00 0.00 59 1001.0
20260505013916 61 179 6.0 8.0 0.00 0.00 0.00 58 1000.8
20260505013417 62 178 6.0 8.0 0.00 0.00 0.00 57 1000.9
20260505012917 62 190 6.0 8.0 0.00 0.00 0.00 56 1000.8
20260505012418 63 196 5.0 10.0 0.00 0.00 0.00 56 1000.8
20260505011919 63 170 5.0 6.0 0.00 0.00 0.00 55 1000.9
20260505011417 63 186 3.0 7.0 0.00 0.00 0.00 54 1000.9
20260505010918 63 171 5.0 7.0 0.00 0.00 0.00 54 1000.9
20260505010417 64 193 5.0 7.0 0.00 0.00 0.00 53 1000.9
20260505005916 64 192 5.0 7.0 0.00 0.00 0.00 53 1000.9
20260505005418 64 185 2.0 3.0 0.00 0.00 0.00 52 1000.8
20260505004916 64 191 3.0 5.0 0.00 0.00 0.00 53 1000.7
20260505003917 64 226 6.0 7.0 0.00 0.00 0.00 51 1000.7
20260505003416 65 212 3.0 6.0 0.00 0.00 0.00 51 1000.7
20260505002417 65 223 5.0 6.0 0.00 0.00 0.00 49 1000.9
20260505001916 66 231 6.0 8.0 0.00 0.00 0.00 49 1000.9
20260505000917 67 232 6.0 6.0 0.00 0.00 0.00 47 1000.9
20260505000416 67 234 6.0 10.0 0.00 0.00 0.00 47 1000.9
20260504235417 68 242 6.0 9.0 0.00 0.00 0.00 45 1001.0
20260504234918 68 226 7.0 14.0 0.00 0.00 0.00 45 1000.9
20260504234421 68 248 9.0 15.0 0.00 0.00 0.00 44 1001.0
20260504233916 69 237 9.0 12.0 0.00 0.00 0.00 44 1001.0
20260504233418 69 246 10.0 14.0 0.00 0.00 0.00 44 1001.1
20260504232417 69 239 9.0 14.0 0.00 0.00 0.00 44 1001.1
20260504231918 69 263 8.0 12.0 0.00 0.00 0.00 44 1001.1
20260504231417 69 240 8.0 15.0 0.00 0.00 0.00 44 1001.1
20260504230416 70 255 12.0 16.0 0.00 0.00 0.00 42 1001.2
20260504225417 70 257 10.0 14.0 0.00 0.00 0.00 43 1001.3
20260504224918 70 251 9.0 13.0 0.00 0.00 0.00 45 1001.3
20260504223916 69 245 12.0 16.0 0.00 0.00 0.00 46 1001.4
20260504222918 69 251 9.0 15.0 0.00 0.00 0.00 50 1001.4
20260504222417 69 249 7.0 16.0 0.00 0.00 0.00 49 1001.3
20260504221918 69 248 12.0 15.0 0.00 0.00 0.00 49 1001.4
20260504221418 69 242 12.0 20.0 0.00 0.00 0.00 48 1001.3
20260504220917 69 247 10.0 20.0 0.00 0.00 0.00 49 1001.3
20260504220416 69 253 13.0 20.0 0.00 0.00 0.00 49 1001.3
20260504215919 69 244 10.0 15.0 0.00 0.00 0.00 49 1001.3
20260504215416 69 237 13.0 17.0 0.00 0.00 0.00 48 1001.4
20260504214919 70 236 14.0 21.0 0.00 0.00 0.00 47 1001.3
20260504214418 70 254 14.0 20.0 0.00 0.00 0.00 46 1001.4
20260504213918 70 251 15.0 23.0 0.00 0.00 0.00 43 1001.3
20260504213417 70 261 9.0 18.0 0.00 0.00 0.00 44 1001.3
20260504212919 70 242 15.0 23.0 0.00 0.00 0.00 46 1001.3
20260504212417 70 242 8.0 12.0 0.00 0.00 0.00 47 1001.3
20260504211918 70 242 12.0 18.0 0.00 0.00 0.00 47 1001.2
20260504211418 70 250 9.0 16.0 0.00 0.00 0.00 46 1001.2
20260504210918 70 239 14.0 20.0 0.00 0.00 0.00 46 1001.3
20260504210417 70 238 13.0 18.0 0.00 0.00 0.00 46 1001.3
20260504205916 70 250 14.0 21.0 0.00 0.00 0.00 46 1001.4
20260504205417 71 236 14.0 23.0 0.00 0.00 0.00 46 1001.3
20260504204917 70 231 10.0 16.0 0.00 0.00 0.00 47 1001.4
20260504204418 70 242 13.0 23.0 0.00 0.00 0.00 47 1001.4
20260504203921 71 227 13.0 20.0 0.00 0.00 0.00 48 1001.6
20260504203416 70 249 14.0 20.0 0.00 0.00 0.00 47 1001.6
20260504202918 71 237 10.0 18.0 0.00 0.00 0.00 47 1001.7
20260504202418 71 241 12.0 25.0 0.00 0.00 0.00 48 1001.8
20260504201917 71 240 14.0 20.0 0.00 0.00 0.00 48 1001.9
20260504201420 70 226 9.0 16.0 0.00 0.00 0.00 50 1001.9
20260504200917 70 220 12.0 16.0 0.00 0.00 0.00 49 1001.8
20260504200417 71 206 10.0 18.0 0.00 0.00 0.00 51 1001.9
20260504195917 70 215 9.0 13.0 0.00 0.00 0.00 52 1001.9
20260504195418 69 213 8.0 12.0 0.00 0.00 0.00 51 1002.0
20260504194917 69 222 10.0 15.0 0.00 0.00 0.00 50 1002.1
20260504194418 69 232 12.0 16.0 0.00 0.00 0.00 51 1002.2
20260504193917 69 241 10.0 18.0 0.00 0.00 0.00 52 1002.3
20260504193417 69 227 13.0 15.0 0.00 0.00 0.00 51 1002.4
20260504192918 69 242 10.0 20.0 0.00 0.00 0.00 52 1002.6
20260504192417 70 228 9.0 13.0 0.00 0.00 0.00 52 1002.6
20260504191916 69 222 8.0 10.0 0.00 0.00 0.00 52 1002.6
20260504191417 69 231 13.0 15.0 0.00 0.00 0.00 53 1002.8
20260504190917 69 220 9.0 13.0 0.00 0.00 0.00 52 1002.8
20260504190418 69 216 10.0 15.0 0.00 0.00 0.00 53 1002.9
20260504185918 69 208 10.0 15.0 0.00 0.00 0.00 53 1003.0
20260504185417 69 212 13.0 17.0 0.00 0.00 0.00 54 1003.0
20260504184917 69 238 14.0 21.0 0.00 0.00 0.00 52 1003.1
20260504184418 68 226 12.0 23.0 0.00 0.00 0.00 54 1003.2
20260504183917 69 226 14.0 16.0 0.00 0.00 0.00 53 1003.1
20260504183416 68 205 13.0 18.0 0.00 0.00 0.00 55 1003.2
20260504182917 68 226 9.0 15.0 0.00 0.00 0.00 56 1003.3
20260504182417 68 237 9.0 13.0 0.00 0.00 0.00 56 1003.4
20260504181918 67 228 13.0 15.0 0.00 0.00 0.00 55 1003.5
20260504181417 67 233 14.0 21.0 0.00 0.00 0.00 55 1003.6
20260504180916 67 217 12.0 18.0 0.00 0.00 0.00 57 1003.6
20260504180418 66 228 8.0 10.0 0.00 0.00 0.00 58 1003.7
20260504175917 66 229 12.0 14.0 0.00 0.00 0.00 58 1003.7
20260504175418 65 228 13.0 17.0 0.00 0.00 0.00 59 1003.9
20260504174917 65 245 16.0 22.0 0.00 0.00 0.00 58 1004.0
20260504174417 65 246 13.0 22.0 0.00 0.00 0.00 58 1004.2
20260504173918 65 247 17.0 29.0 0.00 0.00 0.00 57 1004.2
20260504173417 65 252 13.0 20.0 0.00 0.00 0.00 58 1004.3
20260504172916 64 231 12.0 17.0 0.00 0.00 0.00 59 1004.3
20260504172418 64 240 14.0 24.0 0.00 0.00 0.00 60 1004.4
20260504171921 64 252 17.0 23.0 0.00 0.00 0.00 58 1004.4
20260504171417 64 252 14.0 21.0 0.00 0.00 0.00 59 1004.5
20260504170918 63 231 12.0 22.0 0.00 0.00 0.00 59 1004.6
20260504170418 63 233 14.0 24.0 0.00 0.00 0.00 59 1004.6
20260504160418 62 230 17.0 25.0 0.00 0.00 0.00 59 1005.0
20260504150917 61 239 15.0 24.0 0.00 0.00 0.00 61 1005.1
20260504150416 61 250 18.0 28.0 0.00 0.00 0.00 59 1005.1
20260504140917 58 230 16.0 23.0 0.00 0.00 0.00 62 1005.1
20260504140417 58 249 13.0 16.0 0.00 0.00 0.00 61 1005.0
20260504130416 56 235 13.0 25.0 0.00 0.00 0.00 64 1005.3
20260504110416 51 221 7.0 13.0 0.00 0.00 0.00 70 1005.9
20260504100415 51 241 7.0 12.0 0.00 0.00 0.00 68 1005.5
20260504081917 49 218 8.0 10.0 0.00 0.00 0.00 71 1006.3
20260504081416 49 229 7.0 9.0 0.00 0.00 0.00 71 1006.4
20260504080916 49 218 6.0 12.0 0.00 0.00 0.00 71 1006.5
20260504080418 49 231 8.0 10.0 0.00 0.00 0.00 71 1006.6
20260504050416 50 247 10.0 18.0 0.00 0.00 0.00 73 1007.9
20260504045916 50 250 10.0 16.0 0.00 0.00 0.00 72 1007.8
20260504045418 51 241 10.0 17.0 0.00 0.00 0.00 71 1008.0
20260504044918 51 247 14.0 21.0 0.00 0.00 0.00 71 1008.0
20260504044416 51 251 12.0 17.0 0.00 0.00 0.00 70 1008.1
20260504043916 51 247 12.0 17.0 0.00 0.00 0.00 70 1008.1
20260504043417 51 256 12.0 15.0 0.00 0.00 0.00 69 1008.1
20260504042917 52 242 10.0 15.0 0.00 0.00 0.00 68 1008.1
20260504042416 52 242 9.0 20.0 0.00 0.00 0.00 67 1008.1
20260504041917 52 244 12.0 13.0 0.00 0.00 0.00 66 1008.0
20260504041416 52 255 9.0 13.0 0.00 0.00 0.00 65 1008.0
20260504040916 52 254 13.0 17.0 0.00 0.00 0.00 64 1008.1
20260504040417 53 251 13.0 17.0 0.00 0.00 0.00 63 1008.0
20260504035917 53 256 13.0 20.0 0.00 0.00 0.00 62 1008.0
20260504035416 53 234 9.0 17.0 0.00 0.00 0.00 61 1007.9
20260504034918 53 257 15.0 20.0 0.00 0.00 0.00 61 1007.9
20260504034417 53 255 12.0 16.0 0.00 0.00 0.00 61 1007.9
20260504033916 53 248 14.0 20.0 0.00 0.00 0.00 61 1007.9
20260504033417 53 253 12.0 17.0 0.00 0.00 0.00 61 1007.9
20260504032917 53 256 10.0 23.0 0.00 0.00 0.00 62 1008.0
20260504032416 53 250 10.0 16.0 0.00 0.00 0.00 62 1008.0
20260504031917 53 245 10.0 20.0 0.00 0.00 0.00 61 1008.0
20260504031417 53 245 12.0 15.0 0.00 0.00 0.00 62 1008.1
20260504030916 53 247 12.0 21.0 0.00 0.00 0.00 61 1008.1
20260504030418 53 247 9.0 17.0 0.00 0.00 0.00 61 1008.2
20260504025917 53 251 10.0 15.0 0.00 0.00 0.00 62 1008.2
20260504025416 54 248 8.0 15.0 0.00 0.00 0.00 61 1008.3